1494122400.99,4807,15.0,73140.5,-0.93,-10.09,-11.97,0,*57
1494122402.23,4808,15.0,73148.3,-0.93,-10.09,-11.97,0,*58
1494122403.47,4809,15.0,73146.8,-0.93,-10.09,-11.89,0,*56
1494122404.7,4810,15.0,73144.3,-0.93,-9.93,-11.73,0,*60
1494122405.94,4811,15.0,73140.8,-0.93,-9.75,-11.67,0,*6C
1494122407.17,4812,15.0,73144.3,-0.93,-9.89,-11.73,0,*69
1494122408.4,4813,15.0,73144.8,-0.93,-9.89,-11.73,0,*68
1494122409.63,4814,15.0,73144.5,-0.93,-9.89,-11.73,0,*6F
1494122410.84,4815,15.0,73146.8,-0.95,-9.93,-11.67,0,*66
1494122412.06,4816,15.0,73146.5,-0.93,-9.79,-11.45,0,*67
1494122413.28,4817,15.0,73146.3,-0.91,-9.71,-11.67,0,*6C
1494122414.5,4818,15.0,73146.8,-0.91,-9.71,-11.77,0,*62
1494122415.71,4819,15.0,73144.5,-0.91,-9.75,-11.77,0,*67
1494122416.92,4820,15.0,73144.0,-0.91,-9.75,-11.81,0,*64
1494122418.15,4821,15.0,73144.0,-0.91,-9.83,-11.81,0,*6C
1494122419.39,4822,15.0,73144.5,-0.93,-9.79,-11.85,0,*6C
1494122420.62,4823,15.0,73146.8,-0.93,-9.93,-11.81,0,*6D
1494122421.85,4824,15.0,73146.3,-0.93,-9.89,-11.85,0,*65
1494122423.09,4825,15.0,73144.5,-0.93,-9.89,-11.89,0,*68
1494122424.32,4826,15.0,73144.0,-0.93,-9.89,-11.89,0,*6B
1494122425.55,4827,15.0,73146.3,-0.91,-9.83,-11.85,0,*6E
1494122426.79,4828,15.0,73144.3,-0.91,-9.83,-11.85,0,*61
1494122428.02,4829,15.0,73144.8,-0.93,-9.93,-11.85,0,*63
1494122429.25,4830,15.0,73146.0,-0.91,-9.83,-11.81,0,*6C
1494122430.48,4831,15.0,73140.8,-0.91,-9.83,-11.81,0,*6D
1494122431.7,4832,15.0,73144.3,-0.91,-9.75,-11.67,0,*6F
1494122432.92,4833,15.0,73144.5,-0.91,-9.75,-11.55,0,*6F
1494122434.16,4834,15.0,73144.0,-0.93,-9.79,-11.55,0,*66
1494122435.39,4835,15.0,73142.5,-0.93,-9.61,-11.45,0,*6F
1494122436.65,4836,15.0,73144.3,-0.93,-9.61,-11.67,0,*6C
1494122437.89,4837,15.0,73144.3,-0.91,-9.49,-11.67,0,*65
1494122439.13,4838,15.0,73144.5,-0.91,-9.49,-11.55,0,*6B
1494122440.38,4839,15.0,73144.8,-0.91,-9.49,-11.63,0,*6F
1494122441.64,4840,15.0,73146.8,-0.89,-9.49,-11.63,0,*68
1494122442.89,4841,15.0,73146.8,-0.91,-9.49,-11.63,0,*60
1494122444.13,4842,15.0,73144.3,-0.91,-9.45,-11.67,0,*6B
1494122445.4,4843,15.0,73148.0,-0.89,-9.49,-11.63,0,*6B
1494122446.64,4844,15.0,73144.5,-0.91,-9.49,-11.63,0,*65
1494122447.87,4845,15.0,73144.5,-0.91,-9.49,-11.77,0,*61
1494122449.12,4846,15.0,73146.0,-0.91,-9.49,-11.67,0,*63
1494122450.36,4847,15.0,73144.0,-0.91,-9.45,-11.67,0,*6E
1494122451.6,4848,15.0,73142.0,-0.91,-9.49,-11.63,0,*69
1494122452.84,4849,15.0,73144.3,-0.91,-9.45,-11.55,0,*61
1494122454.09,4850,15.0,73142.5,-0.91,-9.45,-11.55,0,*69
1494122455.35,4851,15.0,73142.3,-0.89,-9.45,-11.51,0,*65
1494122456.59,4852,15.0,73146.3,-0.91,-9.45,-11.51,0,*6F
1494122457.81,4853,15.0,73142.8,-0.91,-9.45,-11.41,0,*6F
1494122459.05,4854,15.0,73142.8,-0.91,-9.45,-11.51,0,*69
1494122460.28,4855,15.0,73146.5,-0.91,-9.45,-11.51,0,*68
1494122461.55,4856,15.0,73144.8,-0.93,-9.37,-11.55,0,*68
1494122462.79,4857,15.0,73146.8,-0.89,-9.31,-11.51,0,*60
1494122464.03,4858,15.0,73144.8,-0.91,-9.37,-11.51,0,*60
1494122465.25,4859,15.0,73144.8,-0.91,-9.31,-11.51,0,*67
1494122466.51,4860,15.0,73142.8,-0.89,-9.37,-11.51,0,*62
1494122467.73,4861,15.0,73144.5,-0.91,-9.37,-11.41,0,*6B
1494122468.96,4862,15.0,73140.5,-0.91,-9.37,-11.41,0,*68
1494122470.18,4863,15.0,73146.3,-0.91,-9.37,-11.41,0,*69
1494122471.37,4864,15.0,73146.0,-0.91,-9.31,-11.41,0,*68
1494122472.59,4865,15.0,73142.0,-0.91,-9.31,-11.37,0,*68
1494122473.8,4866,15.0,73146.0,-0.91,-9.31,-11.51,0,*6B
1494122475.0,4867,15.0,73142.8,-0.91,-9.31,-11.41,0,*6B
1494122476.21,4868,15.0,73146.3,-0.91,-9.31,-11.37,0,*65
1494122477.43,4869,15.0,73144.0,-0.91,-9.23,-11.29,0,*68
1494122478.65,4870,15.0,73146.0,-0.91,-9.19,-11.29,0,*69
1494122479.87,4871,15.0,73146.8,-0.91,-9.23,-11.29,0,*61
1494122481.08,4872,15.0,73142.3,-0.91,-9.23,-11.37,0,*6D
1494122482.3,4873,15.0,73146.3,-0.91,-9.19,-11.29,0,*6A
1494122483.52,4874,15.0,73144.5,-0.91,-9.19,-11.37,0,*62
1494122484.74,4875,15.0,73146.5,-0.91,-9.19,-11.29,0,*6C
1494122485.95,4876,15.0,73144.3,-0.89,-9.19,-11.23,0,*6C
1494122487.14,4877,15.0,73140.3,-0.91,-9.19,-11.23,0,*64
1494122488.35,4878,15.0,73144.5,-0.89,-9.19,-11.23,0,*62
1494122489.55,4879,15.0,73146.5,-0.91,-9.19,-11.23,0,*6A
1494122490.76,4880,15.0,73146.3,-0.89,-9.19,-11.23,0,*65
1494122491.98,4881,15.0,73146.8,-0.89,-9.05,-11.23,0,*69
1494122493.22,4882,15.0,73146.3,-0.89,-9.15,-11.15,0,*6E
1494122494.41,4883,15.0,73142.0,-0.91,-9.05,-11.15,0,*67
1494122495.61,4884,15.0,73144.3,-0.91,-9.05,-11.15,0,*60
1494122496.82,4885,15.0,73140.8,-0.89,-9.05,-11.15,0,*68
1494122498.04,4886,15.0,73146.0,-0.89,-9.05,-11.15,0,*6B
1494122499.28,4887,15.0,73142.5,-0.89,-9.15,-11.23,0,*6E
1494122500.5,4888,15.0,73142.0,-0.85,-9.01,-11.11,0,*69
1494122501.71,4889,15.0,73140.3,-0.85,-8.97,-11.11,0,*66
1494122502.93,4890,15.0,73140.3,-0.89,-9.05,-11.15,0,*6C
1494122504.14,4891,15.0,73140.5,-0.89,-9.05,-11.15,0,*6D
1494122505.36,4892,15.0,73142.0,-0.89,-9.05,-11.15,0,*6E
1494122506.55,4893,15.0,73138.0,-0.91,-9.05,-11.11,0,*62
1494122507.77,4894,15.0,73138.5,-0.89,-9.05,-11.01,0,*6D
1494122508.99,4895,15.0,73140.8,-0.89,-8.93,-11.01,0,*62
1494122510.2,4896,15.0,73144.5,-0.89,-8.93,-10.85,0,*6C
1494122511.4,4897,15.0,73142.8,-0.91,-8.89,-10.93,0,*68
1494122512.61,4898,15.0,73140.8,-0.89,-8.89,-10.85,0,*69
1494122513.82,4899,15.0,73142.8,-0.89,-8.93,-10.85,0,*63
1494122515.07,4900,15.0,73142.5,-0.89,-8.89,-10.79,0,*6A
1494122516.33,4901,15.0,73140.5,-0.89,-8.81,-10.79,0,*63
1494122517.59,4902,15.0,73140.0,-0.89,-8.81,-10.79,0,*60
1494122518.83,4903,15.0,73140.0,-0.85,-8.75,-10.75,0,*6A
1494122520.09,4904,15.0,73142.3,-0.89,-8.81,-10.71,0,*6E
1494122521.34,4905,15.0,73140.0,-0.89,-8.89,-10.79,0,*6F
1494122522.57,4906,15.0,73146.8,-0.89,-8.81,-10.85,0,*67
1494122523.82,4907,15.0,73142.0,-0.83,-8.71,-10.71,0,*68
1494122525.06,4908,15.0,73144.0,-0.85,-8.75,-10.67,0,*62
1494122526.28,4909,15.0,73140.5,-0.89,-8.55,-10.27,0,*69
1494122527.5,4910,15.0,73142.5,-0.89,-8.37,-10.05,0,*65
1494122528.73,4911,15.0,73142.5,-0.89,-8.07,-9.71,0,*5C
1494122529.97,4912,15.0,73142.0,-0.89,-8.07,-9.71,0,*5F
1494122531.2,4913,15.0,73142.0,-0.89,-7.87,-9.45,0,*5E
1494122532.42,4914,15.0,73142.8,-0.91,-7.57,-9.05,0,*59
1494122533.61,4915,15.0,73140.8,-0.85,-7.53,-8.59,0,*51
1494122534.82,4916,15.0,73142.3,-0.85,-7.15,-8.29,0,*57
1494122536.02,4917,15.0,73144.5,-0.85,-7.23,-8.29,0,*53
1494122537.22,4918,15.0,73144.3,-0.85,-7.11,-8.33,0,*56
1494122538.45,4919,15.0,73144.3,-0.85,-7.01,-8.59,0,*5A
1494122539.68,4920,15.0,73146.0,-0.85,-7.01,-8.71,0,*5A
1494122540.91,4921,15.0,73144.0,-0.83,-6.97,-8.71,0,*53
1494122542.17,4922,15.0,73142.3,-0.85,-7.27,-9.45,0,*5A
1494122543.42,4923,15.0,73144.3,-0.85,-7.61,-9.15,0,*5C
1494122544.65,4924,15.0,73146.3,-0.85,-7.53,-9.15,0,*5A
1494122545.85,4925,15.0,73142.5,-0.85,-7.53,-9.19,0,*57
1494122547.1,4926,15.0,73144.0,-0.85,-7.39,-9.15,0,*54
1494122548.33,4927,15.0,73142.5,-0.83,-7.35,-8.97,0,*54
1494122549.54,4928,15.0,73146.5,-0.85,-7.11,-8.97,0,*5B
1494122550.8,4929,15.0,73144.3,-0.85,-7.43,-9.15,0,*56
1494122552.01,4930,15.0,73144.0,-0.83,-7.49,-9.05,0,*53
1494122553.22,4931,15.0,73146.3,-0.83,-7.49,-8.85,0,*5B
1494122554.43,4932,15.0,73142.0,-0.83,-7.49,-8.71,0,*53
1494122555.65,4933,15.0,73140.5,-0.83,-7.39,-8.59,0,*5F
1494122556.91,4934,15.0,73144.3,-0.85,-7.35,-8.51,0,*5A
1494122558.13,4935,15.0,73144.5,-0.83,-7.19,-8.45,0,*56
1494122559.36,4936,15.0,73142.3,-0.83,-6.97,-8.55,0,*53
1494122560.6,4937,15.0,73142.8,-0.83,-6.97,-8.93,0,*58
1494122561.87,4938,15.0,73140.0,-0.83,-6.97,-9.11,0,*5C
1494122563.1,4939,15.0,73146.3,-0.85,-7.27,-9.05,0,*54
1494122564.33,4940,15.0,73144.3,-0.83,-7.31,-8.93,0,*55
1494122565.6,4941,15.0,73142.5,-0.83,-7.35,-9.41,0,*5E
1494122566.84,4942,15.0,73140.5,-0.83,-7.61,-9.97,0,*57
1494122568.06,4943,15.0,73142.3,-0.83,-8.25,-10.31,0,*6D
1494122569.29,4944,15.0,73144.0,-0.83,-8.29,-10.19,0,*6C
1494122570.51,4945,15.0,73140.5,-0.83,-8.17,-10.09,0,*61
1494122571.73,4946,15.0,73142.5,-0.83,-8.45,-10.57,0,*6E
1494122572.95,4947,15.0,73142.3,-0.83,-8.59,-10.57,0,*62
1494122574.18,4948,15.0,73142.8,-0.83,-8.45,-10.35,0,*64
1494122575.4,4949,15.0,73144.3,-0.83,-8.45,-10.23,0,*62
1494122576.62,4950,15.0,73142.8,-0.83,-8.33,-10.19,0,*62
1494122577.85,4951,15.0,73146.8,-0.83,-8.33,-10.19,0,*63
1494122579.12,4952,15.0,73140.3,-0.85,-8.51,-10.41,0,*6F
1494122580.34,4953,15.0,73144.8,-0.83,-8.59,-10.35,0,*63
1494122581.56,4954,15.0,73140.8,-0.83,-8.59,-10.23,0,*63
1494122582.79,4955,15.0,73144.0,-0.83,-8.71,-10.23,0,*68
1494122584.01,4956,15.0,73142.0,-0.83,-8.59,-10.05,0,*65
1494122585.22,4957,15.0,73142.8,-0.83,-8.59,-9.75,0,*5B
1494122586.48,4958,15.0,73146.3,-0.85,-8.51,-9.45,0,*59
1494122587.74,4959,15.0,73142.8,-0.83,-8.11,-8.81,0,*53
1494122588.97,4960,15.0,73142.8,-0.85,-7.57,-8.71,0,*5D
1494122590.19,4961,15.0,73142.5,-0.83,-7.53,-9.05,0,*5C
1494122591.42,4962,15.0,73142.0,-0.83,-7.77,-8.93,0,*57
1494122592.65,4963,15.0,73144.8,-0.83,-7.39,-8.29,0,*5D
1494122593.87,4964,15.0,73140.3,-0.83,-7.11,-8.29,0,*50
1494122595.1,4965,15.0,73140.0,-0.85,-7.11,-7.95,0,*5F
1494122596.34,4966,15.0,73144.8,-0.83,-6.73,-7.31,0,*51
1494122597.55,4967,15.0,73148.8,-0.83,-6.59,-7.53,0,*5C
1494122598.79,4968,15.0,73144.8,-0.83,-6.73,-8.03,0,*51
1494122600.05,4969,15.0,73146.0,-0.83,-6.97,-7.99,0,*56
1494122601.27,4970,15.0,73140.3,-0.81,-6.97,-7.87,0,*53
1494122602.48,4971,15.0,73140.0,-0.81,-7.05,-7.87,0,*58
1494122603.7,4972,15.0,73142.3,-0.81,-7.19,-7.91,0,*51
1494122604.94,4973,15.0,73144.0,-0.81,-7.31,-7.73,0,*56
1494122606.15,4974,15.0,73142.5,-0.81,-7.23,-7.61,0,*51
1494122607.37,4975,15.0,73140.5,-0.81,-7.19,-7.39,0,*54
1494122608.59,4976,15.0,73140.5,-0.81,-6.97,-6.81,0,*52
1494122609.82,4977,15.0,73144.0,-0.79,-6.63,-6.55,0,*56
1494122611.01,4978,15.0,73142.0,-0.81,-6.69,-6.51,0,*50
1494122612.2,4979,15.0,73140.3,-0.81,-6.81,-6.31,0,*51
1494122613.39,4980,15.0,73144.8,-0.81,-6.55,-6.05,0,*59
1494122614.6,4981,15.0,73142.5,-0.81,-6.43,-5.77,0,*59
1494122615.84,4982,15.0,73140.5,-0.81,-6.19,-5.27,0,*50
1494122617.08,4983,15.0,73140.0,-0.83,-5.69,-4.99,0,*53
1494122618.27,4984,15.0,73144.0,-0.81,-5.39,-4.61,0,*54
1494122619.52,4985,15.0,73140.8,-0.79,-5.07,-4.53,0,*5E
1494122620.72,4986,15.0,73142.8,-0.81,-4.73,-4.49,0,*53
1494122621.91,4987,15.0,73138.0,-0.81,-4.57,-4.45,0,*58
1494122623.09,4988,15.0,73140.0,-0.81,-4.41,-4.41,0,*54
1494122624.28,4989,15.0,73140.8,-0.81,-4.29,-4.41,0,*5B
1494122625.49,4990,15.0,73140.5,-0.79,-4.17,-4.41,0,*59
1494122626.7,4991,15.0,73142.5,-0.79,-4.05,-4.45,0,*5F
1494122627.89,4992,15.0,73140.0,-0.77,-4.05,-4.53,0,*55
1494122629.13,4993,15.0,73136.8,-0.79,-4.05,-4.81,0,*55
1494122630.37,4994,15.0,73136.3,-0.79,-4.09,-5.07,0,*51
1494122631.62,4995,15.0,73138.3,-0.79,-4.21,-5.23,0,*5C
1494122632.83,4996,15.0,73138.3,-0.79,-4.33,-5.35,0,*5B
1494122634.04,4997,15.0,73138.0,-0.77,-4.45,-5.31,0,*51
1494122635.28,4998,15.0,73138.8,-0.79,-4.53,-5.31,0,*57
1494122636.49,4999,15.0,73140.3,-0.79,-4.57,-4.99,0,*51
1494122637.73,5000,15.0,73140.8,-0.79,-4.57,-4.81,0,*50
1494122638.94,5001,15.0,73138.8,-0.79,-4.53,-4.65,0,*5F
1494122640.15,5002,15.0,73138.0,-0.79,-4.41,-4.57,0,*5E
1494122641.36,5003,15.0,73138.0,-0.79,-4.17,-4.33,0,*5E
1494122642.54,5004,15.0,73136.5,-0.77,-4.05,-4.33,0,*54
1494122643.74,5005,15.0,73142.8,-0.77,-3.91,-4.21,0,*5C
1494122644.94,5006,14.94,73138.0,-0.77,-3.87,-4.21,0,*58
1494122646.13,5007,15.0,73142.5,-0.77,-3.87,-4.21,0,*59
1494122647.33,5008,15.0,73142.0,-0.77,-3.67,-4.17,0,*5D
1494122648.55,5009,15.0,73140.3,-0.77,-3.63,-4.21,0,*5D
1494122649.79,5010,14.94,73138.0,-0.75,-3.59,-4.37,0,*59
1494122651.0,5011,15.0,73138.3,-0.77,-3.63,-4.45,0,*56
1494122652.21,5012,15.0,73142.0,-0.77,-3.63,-4.65,0,*57
1494122653.48,5013,15.0,73142.5,-0.75,-3.63,-4.77,0,*57
1494122654.75,5014,15.0,73136.3,-0.75,-3.71,-5.07,0,*55
1494122655.97,5015,15.0,73138.0,-0.75,-3.83,-5.55,0,*5E
1494122657.18,5016,15.0,73140.3,-0.77,-4.01,-5.97,0,*5C
1494122658.4,5017,15.0,73142.5,-0.75,-4.17,-6.35,0,*53
1494122659.6,5018,15.0,73138.0,-0.75,-4.41,-6.73,0,*5D
1494122660.81,5019,15.0,73142.0,-0.75,-4.65,-6.89,0,*5F
1494122662.04,5020,15.0,73142.0,-0.77,-4.81,-7.01,0,*5C
1494122663.3,5021,15.0,73138.8,-0.75,-5.27,-7.39,0,*59
1494122664.54,5022,15.0,73136.5,-0.75,-5.39,-7.57,0,*5D
1494122665.77,5023,15.0,73138.5,-0.75,-5.43,-7.77,0,*53
1494122667.01,5024,15.0,73138.5,-0.75,-5.51,-8.51,0,*5C
1494122668.24,5025,15.0,73140.3,-0.75,-5.85,-9.31,0,*53
1494122669.46,5026,15.0,73138.3,-0.75,-6.73,-10.23,0,*61
1494122670.72,5027,15.0,73134.8,-0.75,-7.27,-10.63,0,*64
1494122671.97,5028,15.0,73142.5,-0.75,-7.57,-10.93,0,*63
1494122673.19,5029,15.0,73138.3,-0.75,-7.83,-11.11,0,*60
1494122674.38,5030,15.0,73140.0,-0.77,-8.17,-11.45,0,*69
1494122675.62,5031,15.0,73138.3,-0.75,-8.25,-11.07,0,*6D
1494122676.84,5032,15.0,73138.5,-0.77,-8.11,-11.01,0,*6D
1494122678.07,5033,15.0,73140.0,-0.75,-8.03,-10.85,0,*60
1494122679.26,5034,15.0,73136.8,-0.77,-8.29,-11.41,0,*64
1494122680.5,5035,15.0,73138.5,-0.75,-8.63,-11.77,0,*6C
1494122681.74,5036,14.94,73136.0,-0.75,-8.97,-11.77,0,*64
1494122682.98,5037,15.0,73138.8,-0.75,-9.05,-11.77,0,*6F
1494122684.22,5038,15.0,73140.8,-0.75,-9.05,-11.81,0,*69
1494122685.46,5039,15.0,73136.3,-0.75,-9.19,-11.81,0,*65
1494122686.71,5040,15.0,73138.8,-0.75,-9.19,-11.89,0,*63
1494122687.96,5041,15.0,73142.5,-0.75,-9.19,-11.89,0,*62
1494122689.2,5042,15.0,73140.5,-0.75,-9.19,-11.77,0,*60
1494122690.44,5043,15.0,73138.5,-0.75,-9.05,-11.59,0,*60
1494122691.68,5044,15.0,73138.5,-0.75,-9.01,-11.81,0,*66
1494122692.93,5045,15.0,73138.5,-0.75,-9.05,-11.81,0,*63
1494122694.17,5046,15.0,73136.5,-0.75,-9.19,-11.89,0,*65
1494122695.39,5047,15.0,73140.3,-0.73,-9.19,-11.93,0,*69
1494122696.58,5048,15.0,73140.0,-0.73,-9.27,-12.03,0,*61
1494122697.83,5049,15.0,73140.0,-0.75,-9.27,-11.93,0,*6C
1494122699.1,5050,15.0,73138.3,-0.75,-9.41,-12.07,0,*6A
1494122700.34,5051,15.0,73138.3,-0.75,-9.45,-12.03,0,*6B
1494122701.58,5052,15.0,73140.5,-0.75,-9.41,-12.03,0,*6C
1494122702.83,5053,15.0,73138.5,-0.75,-9.45,-12.03,0,*69
1494122704.07,5054,15.0,73142.0,-0.75,-9.45,-12.03,0,*6E
1494122705.31,5055,15.0,73140.8,-0.75,-9.45,-12.03,0,*6F
1494122706.57,5056,15.0,73142.0,-0.75,-9.53,-12.15,0,*6C
1494122707.79,5057,15.0,73142.3,-0.77,-9.61,-12.21,0,*69
1494122709.03,5058,15.0,73138.0,-0.75,-9.67,-12.07,0,*66
1494122710.26,5059,15.0,73136.5,-0.75,-9.57,-12.03,0,*60
1494122711.48,5060,15.0,73138.8,-0.77,-9.71,-12.11,0,*6F
1494122712.7,5061,15.0,73136.0,-0.77,-9.71,-12.07,0,*69
1494122713.91,5062,15.0,73138.0,-0.77,-9.71,-11.81,0,*67
1494122715.14,5063,15.0,73140.0,-0.77,-9.71,-11.63,0,*6A
1494122716.4,5064,15.0,73136.3,-0.75,-9.45,-11.37,0,*69
1494122717.67,5065,15.0,73140.0,-0.75,-9.41,-11.37,0,*6C
1494122718.91,5066,15.0,73136.8,-0.77,-9.45,-11.37,0,*69
1494122720.17,5067,15.0,73142.5,-0.75,-9.41,-11.37,0,*6E
1494122721.41,5068,15.0,73138.5,-0.75,-9.31,-11.37,0,*66
1494122722.65,5069,15.0,73138.8,-0.75,-9.27,-11.37,0,*60
1494122723.84,5070,15.0,73136.8,-0.77,-9.23,-11.11,0,*6A
1494122725.09,5071,15.0,73140.3,-0.75,-9.15,-11.19,0,*64
1494122726.28,5072,15.0,73142.3,-0.77,-9.23,-11.11,0,*68
1494122727.47,5073,15.0,73140.0,-0.77,-9.19,-11.23,0,*61
1494122728.73,5074,15.0,73140.3,-0.75,-9.57,-11.51,0,*6B
1494122729.96,5075,15.0,73136.3,-0.75,-9.57,-11.45,0,*6F
1494122731.19,5076,15.0,73138.0,-0.75,-9.89,-11.37,0,*6A
1494122732.42,5077,15.0,73142.5,-0.75,-9.83,-11.19,0,*6D
1494122733.63,5078,15.0,73140.3,-0.75,-9.97,-10.85,0,*63
1494122734.88,5079,15.0,73142.3,-0.75,-9.79,-10.41,0,*6A
1494122736.12,5080,15.0,73138.8,-0.75,-9.83,-10.27,0,*69
1494122737.33,5081,15.0,73140.5,-0.75,-9.79,-9.79,0,*5E
1494122738.59,5082,15.0,73142.3,-0.75,-9.45,-9.15,0,*58
1494122739.81,5083,15.0,73142.0,-0.75,-9.31,-8.85,0,*52
1494122741.02,5084,15.0,73142.3,-0.75,-9.27,-8.37,0,*5B
1494122742.29,5085,15.0,73142.0,-0.75,-9.15,-8.03,0,*5C
1494122743.5,5086,15.0,73140.3,-0.77,-8.93,-7.73,0,*5A
1494122744.69,5087,15.0,73140.8,-0.77,-8.55,-7.19,0,*5D
1494122745.9,5088,15.0,73142.3,-0.75,-8.33,-6.77,0,*59
1494122747.11,5089,15.0,73142.0,-0.75,-7.83,-6.35,0,*5A
1494122748.35,5090,15.0,73146.3,-0.77,-7.31,-5.89,0,*5D
1494122749.59,5091,14.94,73138.5,-0.75,-6.77,-5.61,0,*5B
1494122750.81,5092,15.0,73142.3,-0.75,-6.31,-5.55,0,*5D
1494122752.05,5093,15.0,73142.3,-0.75,-6.05,-5.27,0,*5E
1494122753.31,5094,15.0,73140.8,-0.75,-5.73,-5.03,0,*5D
1494122754.52,5095,15.0,73144.0,-0.73,-5.55,-4.81,0,*55
1494122755.75,5096,15.0,73142.3,-0.75,-5.43,-4.77,0,*5E
1494122756.99,5097,15.0,73146.3,-0.75,-5.31,-4.65,0,*59
1494122758.21,5098,15.0,73140.5,-0.73,-5.31,-4.53,0,*55
1494122759.44,5099,15.0,73140.5,-0.75,-5.27,-4.41,0,*56
1494122760.67,5100,15.0,73140.5,-0.75,-5.15,-4.17,0,*55
1494122761.9,5101,15.0,73142.0,-0.73,-4.89,-4.01,0,*51
1494122763.14,5102,15.0,73142.0,-0.71,-4.77,-3.71,0,*51
1494122764.4,5103,15.0,73140.8,-0.71,-4.73,-3.59,0,*5E
1494122765.57,5104,15.0,73140.3,-0.73,-4.57,-3.31,0,*53
1494122766.75,5105,15.0,73140.3,-0.73,-4.29,-3.11,0,*59
1494122767.94,5106,15.0,73142.3,-0.73,-3.95,-3.03,0,*59
1494122769.13,5107,15.0,73140.3,-0.73,-3.83,-3.07,0,*5B
1494122770.34,5108,15.0,73142.0,-0.73,-3.71,-3.03,0,*5D
1494122771.52,5109,15.0,73142.5,-0.73,-3.75,-3.11,0,*5B
1494122772.71,5110,15.0,73144.0,-0.73,-3.75,-3.11,0,*53
1494122773.92,5111,15.0,73142.5,-0.71,-3.79,-3.23,0,*5D
1494122775.13,5112,15.0,73140.5,-0.71,-3.83,-3.31,0,*58
1494122776.31,5113,15.0,73142.5,-0.73,-4.05,-3.35,0,*56
1494122777.52,5114,15.0,73140.8,-0.71,-4.13,-3.31,0,*50
1494122778.72,5115,15.0,73142.3,-0.73,-4.29,-3.51,0,*5C
1494122779.94,5116,14.94,73138.5,-0.71,-4.49,-3.43,0,*58
1494122781.16,5117,15.0,73142.3,-0.71,-4.69,-3.31,0,*5E
1494122782.36,5118,15.0,73146.3,-0.73,-4.89,-3.15,0,*5B
1494122783.59,5119,15.0,73142.5,-0.71,-4.89,-3.03,0,*5F
1494122784.79,5120,15.0,73146.3,-0.69,-4.77,-2.79,0,*51
1494122786.0,5121,15.0,73140.0,-0.69,-4.57,-2.67,0,*5D
1494122787.22,5122,15.0,73142.5,-0.71,-4.21,-2.35,0,*51
1494122788.4,5123,15.0,73142.5,-0.73,-3.87,-2.31,0,*5D
1494122789.64,5124,15.0,73140.5,-0.71,-3.47,-2.19,0,*5E
1494122790.84,5125,14.94,73140.3,-0.71,-3.23,-2.19,0,*5D
1494122792.07,5126,15.0,73142.3,-0.71,-3.03,-1.95,0,*5B
1494122793.3,5127,15.0,73142.8,-0.71,-2.79,-1.95,0,*56
1494122794.55,5128,14.94,73138.0,-0.71,-2.67,-1.91,0,*52
1494122795.8,5129,15.0,73140.8,-0.71,-2.55,-1.95,0,*56
1494122797.03,5130,15.0,73142.3,-0.71,-2.43,-1.91,0,*5D
1494122798.27,5131,15.0,73140.3,-0.71,-2.35,-1.91,0,*5D
1494122799.47,5132,15.0,73142.8,-0.69,-2.19,-1.91,0,*59
1494122800.68,5133,14.94,73140.8,-0.69,-2.19,-1.91,0,*58
1494122801.88,5134,15.0,73140.5,-0.69,-2.19,-1.91,0,*5F
1494122803.09,5135,15.0,73140.0,-0.69,-2.19,-1.91,0,*5E
1494122804.3,5136,15.0,73142.3,-0.69,-2.19,-1.91,0,*5D
1494122805.5,5137,15.0,73140.3,-0.69,-2.19,-1.83,0,*5F
1494122806.74,5138,15.0,73140.8,-0.69,-2.03,-1.91,0,*58
1494122807.98,5139,15.0,73142.3,-0.67,-2.11,-1.79,0,*52
1494122809.21,5140,15.0,73144.8,-0.69,-2.07,-1.83,0,*50
1494122810.46,5141,15.0,73142.8,-0.67,-1.99,-1.79,0,*5E
1494122811.67,5142,15.0,73142.0,-0.69,-2.03,-1.79,0,*53
1494122812.91,5143,15.0,73146.3,-0.67,-1.99,-1.79,0,*5C
1494122814.15,5144,15.0,73140.5,-0.67,-1.99,-1.79,0,*5B
1494122815.39,5145,15.0,73144.5,-0.69,-2.03,-1.83,0,*51
1494122816.65,5146,15.0,73142.8,-0.67,-2.11,-1.87,0,*5B
1494122817.92,5147,15.0,73142.8,-0.67,-2.11,-1.87,0,*5A
1494122819.16,5148,15.0,73140.3,-0.67,-2.11,-1.79,0,*54
1494122820.4,5149,15.0,73140.5,-0.67,-2.11,-1.79,0,*55
1494122821.64,5150,14.94,73140.8,-0.67,-2.11,-1.79,0,*5D
1494122822.85,5151,15.0,73140.5,-0.67,-2.15,-1.79,0,*58
1494122824.08,5152,14.94,73138.5,-0.67,-2.15,-1.87,0,*5A
1494122825.32,5153,15.0,73142.5,-0.67,-2.15,-1.87,0,*5B
1494122826.58,5154,14.94,73142.5,-0.63,-2.11,-1.83,0,*58
1494122827.85,5155,15.0,73142.0,-0.63,-2.11,-1.83,0,*59
1494122829.06,5156,15.0,73142.3,-0.63,-2.19,-1.75,0,*5B
1494122830.29,5157,15.0,73142.0,-0.63,-2.27,-1.83,0,*5E
1494122831.52,5158,15.0,73144.3,-0.67,-2.27,-1.87,0,*51
1494122832.76,5159,15.0,73142.3,-0.67,-2.27,-1.87,0,*50
1494122833.97,5160,15.0,73140.5,-0.67,-2.27,-1.79,0,*5B
1494122835.2,5161,15.0,73142.5,-0.63,-2.27,-1.83,0,*5B
1494122836.41,5162,14.94,73140.5,-0.63,-2.23,-1.75,0,*55
1494122837.65,5163,15.0,73142.5,-0.63,-2.11,-1.75,0,*55
1494122838.89,5164,15.0,73140.3,-0.63,-2.11,-1.75,0,*52
1494122840.13,5165,15.0,73140.5,-0.63,-2.11,-1.75,0,*53
1494122841.37,5166,14.94,73138.5,-0.63,-2.11,-1.75,0,*50
1494122842.58,5167,15.0,73142.8,-0.61,-2.11,-1.75,0,*53
1494122843.8,5168,14.94,73138.5,-0.61,-1.99,-1.63,0,*58
1494122845.04,5169,15.0,73140.8,-0.63,-1.99,-1.71,0,*58
1494122846.28,5170,15.0,73140.5,-0.63,-1.99,-1.63,0,*53
1494122847.52,5171,15.0,73140.5,-0.63,-1.95,-1.63,0,*5E
1494122848.73,5172,15.0,73144.0,-0.61,-1.87,-1.71,0,*5F
1494122849.94,5173,15.0,73138.3,-0.61,-1.95,-1.63,0,*5E
1494122851.17,5174,15.0,73144.3,-0.63,-1.87,-1.63,0,*58
1494122852.41,5175,15.0,73142.5,-0.63,-1.87,-1.63,0,*59
1494122853.62,5176,15.0,73144.5,-0.61,-1.87,-1.71,0,*5B
1494122854.83,5177,15.0,73142.8,-0.61,-1.83,-1.63,0,*5D
1494122856.05,5178,14.94,73140.5,-0.61,-1.83,-1.71,0,*51
1494122857.26,5179,14.94,73138.3,-0.63,-1.75,-1.71,0,*5B
1494122858.48,5180,15.0,73142.8,-0.63,-1.75,-1.71,0,*5D
1494122859.69,5181,15.0,73142.0,-0.61,-1.83,-1.63,0,*54
1494122860.9,5182,14.94,73136.5,-0.61,-1.87,-1.71,0,*50
1494122862.11,5183,15.0,73140.3,-0.61,-1.95,-1.63,0,*51
1494122863.32,5184,15.0,73140.5,-0.61,-1.95,-1.71,0,*55
1494122864.53,5185,15.0,73142.5,-0.61,-1.87,-1.63,0,*54
1494122865.74,5186,15.0,73138.8,-0.61,-1.87,-1.63,0,*57
1494122866.94,5187,15.0,73144.3,-0.61,-1.95,-1.59,0,*5C
1494122868.14,5188,14.94,73138.0,-0.61,-1.95,-1.59,0,*53
1494122869.35,5189,15.0,73142.8,-0.61,-1.87,-1.59,0,*51
1494122870.56,5190,15.0,73142.0,-0.61,-1.95,-1.51,0,*52
1494122871.76,5191,14.94,73136.0,-0.61,-1.83,-1.59,0,*5C
1494122872.97,5192,15.0,73138.8,-0.61,-1.83,-1.51,0,*57
1494122874.16,5193,15.0,73142.8,-0.61,-1.71,-1.51,0,*5B
1494122875.41,5194,15.0,73140.3,-0.59,-1.71,-1.47,0,*50
1494122876.59,5195,15.0,73136.3,-0.61,-1.75,-1.59,0,*51
1494122877.77,5196,14.94,73136.8,-0.61,-1.75,-1.51,0,*5A
1494122878.98,5197,14.94,73138.0,-0.59,-1.71,-1.55,0,*50
1494122880.19,5198,14.94,73134.0,-0.59,-1.79,-1.55,0,*57
1494122881.4,5199,15.0,73142.8,-0.59,-1.79,-1.55,0,*56
1494122882.65,5200,15.0,73138.8,-0.59,-1.71,-1.47,0,*5E
1494122883.89,5201,15.0,73136.0,-0.59,-1.71,-1.47,0,*5F
1494122885.1,5202,14.94,73132.3,-0.57,-1.71,-1.47,0,*52
1494122886.34,5203,15.0,73136.0,-0.59,-1.59,-1.43,0,*53
1494122887.55,5204,14.94,73132.8,-0.57,-1.71,-1.47,0,*54
1494122888.79,5205,15.0,73136.8,-0.59,-1.67,-1.47,0,*5C
1494122890.0,5206,15.0,73138.8,-0.59,-1.67,-1.55,0,*5C
1494122891.18,5207,15.0,73138.3,-0.57,-1.59,-1.55,0,*5E
1494122892.35,5208,15.0,73136.3,-0.57,-1.59,-1.55,0,*51
1494122893.53,5209,15.0,73138.3,-0.57,-1.59,-1.55,0,*50
1494122894.76,5210,15.0,73138.8,-0.59,-1.59,-1.47,0,*55
1494122895.95,5211,15.0,73136.5,-0.57,-1.55,-1.67,0,*54
1494122897.13,5212,15.0,73138.5,-0.57,-1.55,-1.59,0,*5A
1494122898.31,5213,15.0,73138.0,-0.57,-1.55,-1.67,0,*56
1494122899.5,5214,15.0,73136.8,-0.57,-1.55,-1.67,0,*51
1494122900.71,5215,15.0,73140.0,-0.59,-1.59,-1.67,0,*52
1494122901.89,5216,14.94,73136.3,-0.57,-1.59,-1.71,0,*58
1494122903.07,5217,15.0,73138.5,-0.57,-1.59,-1.79,0,*51
1494122904.25,5218,14.94,73134.8,-0.57,-1.67,-1.79,0,*53
1494122905.44,5219,15.0,73142.3,-0.57,-1.67,-1.79,0,*52
1494122906.65,5220,15.0,73138.8,-0.57,-1.71,-1.91,0,*59
1494122907.86,5221,14.94,73136.3,-0.57,-1.71,-1.91,0,*58
1494122909.1,5222,14.94,73136.3,-0.57,-1.91,-1.91,0,*55
1494122910.32,5223,15.0,73138.8,-0.57,-1.91,-1.95,0,*50
1494122911.55,5224,15.0,73138.3,-0.57,-1.91,-1.95,0,*57
1494122912.78,5225,15.0,73140.8,-0.57,-1.91,-2.03,0,*5A
1494122914.02,5226,14.94,73134.5,-0.57,-2.03,-2.03,0,*51
1494122915.25,5227,15.0,73138.0,-0.57,-2.03,-1.95,0,*5C
1494122916.48,5228,15.0,73140.0,-0.57,-2.03,-2.03,0,*5F
1494122917.72,5229,15.0,73138.8,-0.57,-2.03,-2.03,0,*5E
1494122918.96,5230,14.94,73138.0,-0.57,-2.03,-2.03,0,*56
1494122920.19,5231,15.0,73138.3,-0.57,-2.03,-1.95,0,*5B